Albion, NE

6:47 PM CDT on September 22, 2017 (GMT -0500)
Albion Municipal

Weather History for KBVN - April, 2013

Change the Weather History Date:

Monday, April 1, 2013

  Actual Average (KOFK) Record (KOFK)
Temperature  
Mean Temperature 32 °F -  
Max Temperature 44 °F 53 °F 92 °F (2012)
Min Temperature 21 °F 30 °F 2 °F (1924)
Degree Days  
Heating Degree Days 33    
Moisture  
Dew Point 18 °F    
Average Humidity 58    
Maximum Humidity 84    
Minimum Humidity 34    
Precipitation  
Precipitation 0.00 in - - ()
Sea Level Pressure  
Sea Level Pressure 30.26 in    
Wind  
Wind Speed 8 mph (North)    
Max Wind Speed 16 mph    
Max Gust Speed 20 mph    
Visibility 10 miles    
Events Thunderstorm    
Averages and records for this station are not official NWS values.
T = Trace of Precipitation, MM = Missing Value Source: NWS Daily Summary

Daily Weather History Graph

Daily Weather History Graph

Search for Another Location

Airport or City:

Trip Planner

Search our weather history database for the weather conditions in past years. The results will help you decide how hot, cold, wet, or windy it might be!

Date:

Astronomy

Apr. 01, 2013 Rise Set
Actual Time 7:14 AM CDT 7:57 PM CDT
Civil Twilight 6:46 AM CDT 8:26 PM CDT
Nautical Twilight 6:13 AM CDT 8:59 PM CDT
Astronomical Twilight 5:39 AM CDT 9:33 PM CDT
Moon 1:11 AM CDT (4/1) 10:59 AM CDT (4/1)
Length of Visible Light 13h 39m
Length of Day
12h 43m
Waning Gibbous, 67% of the Moon is Illuminated
Apr 1
Waning Gibbous
Apr 2
Last Quarter
Apr 10
New
Apr 18
First Quarter
Apr 25
Full

Hourly Weather History & Observations

Time (CDT) Temp. Windchill Dew Point Humidity Pressure Visibility Wind Dir Wind Speed Gust Speed Precip Events Conditions
12:15 AM 29.3 °F 19.6 °F 22.5 °F 76% 30.19 in 10.0 mi North 11.5 mph 17.3 mph N/A   Scattered Clouds
12:35 AM 28.8 °F 18.4 °F 21.2 °F 73% 30.19 in 10.0 mi North 12.7 mph 17.3 mph N/A   Scattered Clouds
12:55 AM 28.0 °F 18.6 °F 21.0 °F 75% 30.20 in 10.0 mi North 10.4 mph - N/A   Scattered Clouds
1:15 AM 27.5 °F 18.0 °F 19.9 °F 73% 30.20 in 10.0 mi North 10.4 mph - N/A   Scattered Clouds
1:35 AM 27.1 °F 17.5 °F 18.9 °F 71% 30.20 in 10.0 mi North 10.4 mph - N/A   Clear
1:55 AM 26.6 °F 16.8 °F 18.9 °F 73% 30.20 in 10.0 mi North 10.4 mph - N/A   Scattered Clouds
2:15 AM 26.2 °F 17.8 °F 18.1 °F 71% 30.21 in 10.0 mi North 8.1 mph - N/A   Scattered Clouds
2:35 AM 26.1 °F 20.5 °F 17.2 °F 69% 30.22 in 10.0 mi NNW 4.6 mph - N/A   Scattered Clouds
3:15 AM 24.3 °F 19.9 °F 16.7 °F 73% 30.24 in 10.0 mi WNW 3.5 mph - N/A   Clear
3:35 AM 23.7 °F 17.8 °F 16.7 °F 75% 30.24 in 10.0 mi NNW 4.6 mph - N/A   Clear
3:55 AM 23.0 °F 17.0 °F 16.7 °F 77% 30.25 in 10.0 mi NNW 4.6 mph - N/A   Clear
4:15 AM 24.6 °F 15.1 °F 16.7 °F 72% 30.24 in 10.0 mi North 9.2 mph - N/A   Clear
4:35 AM 24.6 °F 16.7 °F 17.4 °F 74% 30.24 in 10.0 mi NNW 6.9 mph - N/A   Clear
4:55 AM 23.9 °F 16.8 °F 17.4 °F 76% 30.25 in 10.0 mi NNW 5.8 mph - N/A   Clear
5:15 AM 23.0 °F 14.7 °F 17.4 °F 79% 30.26 in 10.0 mi WNW 6.9 mph - N/A   Clear
5:35 AM 22.5 °F 14.1 °F 17.6 °F 82% 30.27 in 10.0 mi NNW 6.9 mph - N/A   Clear
5:55 AM 22.5 °F 17.8 °F 17.4 °F 81% 30.28 in 10.0 mi WNW 3.5 mph - N/A   Scattered Clouds
6:15 AM 22.5 °F 15.1 °F 17.6 °F 82% 30.27 in 10.0 mi North 5.8 mph - N/A   Clear
6:35 AM 23.0 °F 14.7 °F 17.6 °F 80% 30.28 in 10.0 mi NNW 6.9 mph - N/A   Clear
6:55 AM 22.3 °F 17.6 °F 17.2 °F 81% 30.29 in 10.0 mi NW 3.5 mph - N/A   Clear
7:15 AM 21.7 °F - 17.1 °F 82% 30.29 in 10.0 mi Calm Calm - N/A   Clear
7:35 AM 22.1 °F - 17.4 °F 82% 30.30 in 10.0 mi Calm Calm - N/A   Clear
7:55 AM 22.1 °F 17.4 °F 18.0 °F 84% 30.30 in 10.0 mi NNW 3.5 mph - N/A   Clear
8:15 AM 23.7 °F 16.6 °F 18.3 °F 80% 30.30 in 10.0 mi NNW 5.8 mph - N/A   Clear
8:35 AM 25.3 °F 16.7 °F 18.0 °F 74% 30.30 in 10.0 mi North 8.1 mph - N/A   Clear
8:55 AM 26.4 °F 18.0 °F 18.1 °F 71% 30.30 in 10.0 mi NNW 8.1 mph - N/A   Clear
9:15 AM 27.1 °F 18.2 °F 17.6 °F 67% 30.31 in 10.0 mi North 9.2 mph - N/A   Clear
9:35 AM 28.2 °F 20.2 °F 17.8 °F 65% 30.31 in 10.0 mi NNW 8.1 mph - N/A   Clear
9:55 AM 29.1 °F 20.0 °F 17.1 °F 61% 30.31 in 10.0 mi North 10.4 mph - N/A   Clear
10:15 AM 30.2 °F 21.9 °F 16.7 °F 57% 30.31 in 10.0 mi North 9.2 mph - N/A   Clear
10:35 AM 32.0 °F 23.6 °F 17.8 °F 56% 30.31 in 10.0 mi NNE 10.4 mph - N/A   Clear
10:55 AM 32.4 °F 24.6 °F 17.8 °F 55% 30.31 in 10.0 mi North 9.2 mph - N/A   Clear
11:15 AM 33.6 °F 26.2 °F 17.4 °F 52% 30.31 in 10.0 mi North 9.2 mph 17.3 mph N/A Thunderstorm Clear
11:35 AM 34.7 °F 26.9 °F 16.3 °F 47% 30.32 in 10.0 mi NNW 10.4 mph - N/A   Clear
11:55 AM 35.4 °F 27.8 °F 16.0 °F 45% 30.32 in 10.0 mi NNW 10.4 mph 16.1 mph N/A   Clear
12:15 PM 36.3 °F 26.8 °F 16.3 °F 44% 30.31 in 10.0 mi NNW 16.1 mph 19.6 mph N/A   Clear
12:35 PM 37.6 °F 31.0 °F 16.5 °F 42% 30.30 in 10.0 mi North 9.2 mph 12.7 mph N/A   Clear
12:55 PM 38.1 °F 31.2 °F 16.3 °F 41% 30.30 in 10.0 mi North 10.4 mph - N/A   Clear
1:15 PM 39.2 °F 33.0 °F 16.7 °F 40% 30.30 in 10.0 mi NNW 9.2 mph 17.3 mph N/A   Clear
1:35 PM 39.0 °F 35.7 °F 16.5 °F 40% 30.29 in 10.0 mi North 4.6 mph 19.6 mph N/A   Clear
2:15 PM 41.2 °F 36.6 °F 16.0 °F 36% 30.27 in 10.0 mi North 6.9 mph - N/A   Clear
2:35 PM 41.5 °F 37.1 °F 16.2 °F 36% 30.27 in 10.0 mi NW 6.9 mph 17.3 mph N/A   Clear
2:55 PM 41.9 °F 38.2 °F 16.2 °F 35% 30.27 in 10.0 mi North 5.8 mph - N/A   Scattered Clouds
3:15 PM 42.3 °F 36.3 °F 16.5 °F 35% 30.27 in 10.0 mi NNW 10.4 mph - N/A   Clear
3:35 PM 42.6 °F 38.4 °F 16.3 °F 35% 30.26 in 10.0 mi North 6.9 mph - N/A   Clear
3:55 PM 43.7 °F 36.6 °F 16.7 °F 34% 30.25 in 10.0 mi North 15.0 mph - N/A   Scattered Clouds
4:15 PM 43.7 °F 39.1 °F 16.5 °F 34% 30.24 in 10.0 mi North 8.1 mph 16.1 mph N/A   Clear
4:35 PM 43.9 °F 39.9 °F 16.9 °F 34% 30.24 in 10.0 mi NNW 6.9 mph - N/A   Clear
4:55 PM 43.7 °F 38.6 °F 16.7 °F 34% 30.23 in 10.0 mi North 9.2 mph - N/A   Scattered Clouds
5:15 PM 43.2 °F 39.0 °F 16.9 °F 35% 30.23 in 10.0 mi NW 6.9 mph - N/A   Clear
5:35 PM 43.3 °F 40.7 °F 17.1 °F 35% 30.22 in 10.0 mi North 4.6 mph - N/A   Clear
5:55 PM 43.3 °F 38.1 °F 16.9 °F 35% 30.22 in 10.0 mi NNE 9.2 mph - N/A   Clear
6:15 PM 43.7 °F 38.1 °F 17.2 °F 35% 30.22 in 10.0 mi North 10.4 mph - N/A   Clear
6:35 PM 42.6 °F 39.9 °F 16.7 °F 35% 30.21 in 10.0 mi ENE 4.6 mph - N/A   Clear
6:55 PM 42.8 °F 38.0 °F 17.6 °F 36% 30.21 in 10.0 mi NNE 8.1 mph - N/A   Clear
7:15 PM 41.9 °F 37.5 °F 17.6 °F 38% 30.21 in 10.0 mi NE 6.9 mph - N/A   Clear
7:35 PM 40.6 °F 37.5 °F 18.3 °F 41% 30.21 in 10.0 mi NE 4.6 mph - N/A   Clear
7:55 PM 38.1 °F 33.7 °F 18.9 °F 46% 30.22 in 10.0 mi East 5.8 mph - N/A   Clear
8:15 PM 35.6 °F 30.7 °F 18.9 °F 51% 30.22 in 10.0 mi ENE 5.8 mph - N/A   Clear
8:55 PM 32.5 °F 26.2 °F 19.2 °F 58% 30.24 in 10.0 mi East 6.9 mph - N/A   Clear
9:15 PM 32.0 °F 25.6 °F 18.9 °F 58% 30.24 in 10.0 mi East 6.9 mph - N/A   Clear
9:35 PM 31.1 °F 24.5 °F 18.9 °F 61% 30.25 in 10.0 mi ENE 6.9 mph - N/A   Scattered Clouds
9:55 PM 30.9 °F 24.3 °F 18.9 °F 61% 30.25 in 10.0 mi ENE 6.9 mph - N/A   Scattered Clouds
10:15 PM 30.2 °F - 18.3 °F 61% 30.26 in 10.0 mi Calm Calm - N/A   Scattered Clouds
10:35 PM 28.0 °F - 18.1 °F 66% 30.27 in 10.0 mi Calm Calm - N/A   Clear
10:55 PM 29.7 °F 26.1 °F 18.5 °F 63% 30.27 in 10.0 mi ESE 3.5 mph - N/A   Clear
11:15 PM 28.0 °F 24.2 °F 18.5 °F 67% 30.26 in 10.0 mi ESE 3.5 mph - N/A   Clear
11:35 PM 27.7 °F - 18.9 °F 69% 30.27 in 10.0 mi Calm Calm - N/A   Scattered Clouds
11:55 PM 27.1 °F - 19.0 °F 72% 30.27 in 10.0 mi Calm Calm - N/A   Scattered Clouds